Skip Page Navigation
NASA JPL Caltech
NASA Logo - Jet Propulsion Laboratory + View the NASA Portal
+ Near-Earth Object (NEO) Program
Search JPL
JPL Home Earth Solar System Stars & Galaxies Technology
JPL Solar System Dynamics
BODIES ORBITS EPHEMERIDES TOOLS PHYSICAL DATA DISCOVERY FAQ SITE MAP
JPL Small-Body Database Browser
Search: [ help ]  
11846 Verminnen (1987 SE3)
Classification: Main-belt Asteroid          SPK-ID: 2011846
Ephemeris | Orbit Diagram | Orbital Elements | Physical Parameters | Discovery Circumstances ]

[ show orbit diagram ]
Orbital Elements at Epoch 2456400.5 (2013-Apr-18.0) TDB
Reference: JPL 1 (heliocentric ecliptic J2000)
 Element Value Uncertainty (1-sigma)   Units 
e .1210626661585209 5.9813e-08  
a 2.533916185803279 1.9465e-08 AU
q 2.227153536527704 1.52e-07 AU
i 4.662912061693572 6.9245e-06 deg
node 93.05777228007813 7.9877e-05 deg
peri 340.7246134375696 8.5551e-05 deg
M 62.73938845772268 3.3244e-05 deg
tp 2456143.741650224068
(2012-Aug-04.24165022)
0.00013589 JED
period 1473.285095560378
4.03
1.6976e-05
4.648e-08
d
yr
n .2443518916228977 2.8155e-09 deg/d
Q 2.840678835078854 2.1821e-08 AU
  Orbit Determination Parameters
   # obs. used (total)      1032  
   data-arc span      13717 days (37.56 yr)  
   first obs. used      1975-10-03  
   last obs. used      2013-04-23  
   planetary ephem.      DE405  
   SB-pert. ephem.      SB405-CPV-2  
   condition code      0  
   fit RMS      .53248  
   data source      ORB  
   producer      Otto Matic  
   solution date      2013-Apr-29 13:46:22  

Additional Information
 Earth MOID = 1.24204 AU 
 T_jup = 3.434 
[ show covariance matrix ]

Ephemeris | Orbit Diagram | Orbital Elements | Physical Parameters | Discovery Circumstances ]

Physical Parameter Table
Parameter Symbol Value Units Sigma Reference Notes
absolute magnitude H 13.9 mag n/a PDS3 (MPC 36232)  

11846 Verminnen           Discovered 1987 Sept. 21 by E. W. Elst at Smolyan.
Johan Verminnen (b. 1951) is a Flemish artist, well known for his song Rue des Bouchers, named after a street in Brussels. This city is often the inspiration source for his songs, in Flemish and French, but also in the Brussels' dialect. Since 2007 he has been director of Sabam, the organization for the rights of artists.
NOTE: some special characters may not display properly (any characters within {} are an attempt to place the proper accent above a character)
Reference: 20081212/MPCPages.arcLast Updated: 2008-12-12

Alternate Designations
 1987 SE3 = 1975 TP2 = 1991 RN16 = 1997 BL3 
Ephemeris | Orbit Diagram | Orbital Elements | Physical Parameters | Discovery Circumstances ]
ABOUT SSD CREDITS/AWARDS PRIVACY/COPYRIGHT GLOSSARY LINKS
FirstGov 2013-May-19 04:52 UT
(server date/time)  
NASA Home Page
Site Manager:   Donald K. Yeomans
Webmaster  Alan B. Chamberlin